• In Russia
  • List of Countries
  • For 7 days
  • Water Temperature
  • Satellite Maps
  • Weather Map
  • Weather Widgets
  • user-avatar
    Login

    Hourly Weather Solden

    Today, 22 June, Thursday

    Time Temperature Precipitation Wind Pressure Humidity
    00:00 +7°C° 0.1 mm 1 mps 585 mmHg 90%
    01:00 +5°C° 0 mm 0 mps 584 mmHg 90%
    02:00 +5°C° 0 mm 0 mps 584 mmHg 89%
    03:00 +6°C° 0 mm 1 mps 584 mmHg 89%
    04:00 +5°C° 0 mm 1 mps 584 mmHg 88%
    05:00 +8°C° 0 mm 1 mps 586 mmHg 82%
    06:00 +11°C° 0 mm 1 mps 587 mmHg 75%
    07:00 +14°C° 0 mm 1 mps 589 mmHg 68%
    08:00 +16°C° 0 mm 1 mps 590 mmHg 59%
    09:00 +19°C° 0 mm 1 mps 591 mmHg 50%
    10:00 +21°C° 0 mm 1 mps 591 mmHg 41%
    11:00 +21°C° 0.2 mm 1 mps 592 mmHg 41%
    12:00 +22°C° 0.2 mm 1 mps 592 mmHg 40%
    13:00 +22°C° 0.2 mm 1 mps 592 mmHg 40%
    14:00 +21°C° 0.5 mm 2 mps 591 mmHg 44%
    15:00 +20°C° 0.5 mm 2 mps 591 mmHg 49%
    16:00 +19°C° 0.5 mm 2 mps 590 mmHg 53%
    17:00 +19°C° 0.6 mm 1 mps 590 mmHg 62%
    18:00 +16°C° 0.6 mm 1 mps 589 mmHg 71%
    19:00 +15°C° 0.6 mm 1 mps 588 mmHg 80%
    20:00 +13°C° 0.3 mm 1 mps 588 mmHg 83%
    21:00 +11°C° 0.3 mm 1 mps 587 mmHg 86%
    22:00 +9°C° 0.3 mm 0 mps 586 mmHg 89%
    23:00 +9°C° 0.1 mm 1 mps 586 mmHg 89%

    Tomorrow, 23 June, Friday

    Time Temperature Precipitation Wind Pressure Humidity
    00:00 +8°C° 0.1 mm 1 mps 586 mmHg 90%
    01:00 +8°C° 0.1 mm 1 mps 586 mmHg 91%
    02:00 +8°C° 0 mm 1 mps 585 mmHg 90%
    03:00 +7°C° 0 mm 1 mps 585 mmHg 89%
    04:00 +7°C° 0 mm 1 mps 585 mmHg 88%
    05:00 +9°C° 0 mm 1 mps 586 mmHg 82%
    06:00 +11°C° 0 mm 1 mps 587 mmHg 77%
    07:00 +13°C° 0 mm 1 mps 588 mmHg 71%
    08:00 +16°C° 0 mm 1 mps 589 mmHg 60%
    09:00 +19°C° 0 mm 1 mps 590 mmHg 49%
    10:00 +21°C° 0 mm 1 mps 591 mmHg 37%
    11:00 +21°C° 0.1 mm 1 mps 591 mmHg 38%
    12:00 +21°C° 0.1 mm 2 mps 591 mmHg 38%
    13:00 +21°C° 0.1 mm 2 mps 591 mmHg 38%
    14:00 +21°C° 0.2 mm 2 mps 591 mmHg 41%
    15:00 +21°C° 0.2 mm 2 mps 591 mmHg 43%
    16:00 +20°C° 0.2 mm 2 mps 591 mmHg 46%
    17:00 +18°C° 0.3 mm 2 mps 590 mmHg 56%
    18:00 +18°C° 0.3 mm 1 mps 589 mmHg 66%
    19:00 +15°C° 0.3 mm 1 mps 589 mmHg 76%
    20:00 +13°C° 0.1 mm 1 mps 588 mmHg 81%
    21:00 +11°C° 0.1 mm 1 mps 587 mmHg 85%
    22:00 +8°C° 0.1 mm 1 mps 586 mmHg 90%
    23:00 +8°C° 0 mm 1 mps 586 mmHg 90%

    Day after tomorrow, 24 June, Saturday

    Time Temperature Precipitation Wind Pressure Humidity
    00:00 +8°C° 0 mm 1 mps 586 mmHg 90%
    01:00 +8°C° 0 mm 1 mps 586 mmHg 89%
    02:00 +7°C° 0 mm 1 mps 585 mmHg 89%
    03:00 +7°C° 0 mm 1 mps 585 mmHg 88%
    04:00 +6°C° 0 mm 1 mps 584 mmHg 88%
    05:00 +9°C° 0 mm 1 mps 586 mmHg 81%
    06:00 +11°C° 0 mm 1 mps 587 mmHg 74%
    07:00 +13°C° 0 mm 0 mps 588 mmHg 67%
    08:00 +14°C° 0 mm 0 mps 589 mmHg 59%
    09:00 +18°C° 0 mm 1 mps 590 mmHg 51%
    10:00 +20°C° 0 mm 1 mps 591 mmHg 43%
    11:00 +21°C° 0.2 mm 1 mps 590 mmHg 43%
    12:00 +20°C° 0.2 mm 2 mps 590 mmHg 44%
    13:00 +21°C° 0.2 mm 2 mps 590 mmHg 44%
    14:00 +20°C° 0.6 mm 2 mps 590 mmHg 51%
    15:00 +19°C° 0.6 mm 2 mps 589 mmHg 58%
    16:00 +18°C° 0.6 mm 2 mps 588 mmHg 65%
    17:00 +16°C° 1 mm 2 mps 588 mmHg 73%
    18:00 +15°C° 1 mm 1 mps 587 mmHg 81%
    19:00 +14°C° 1 mm 1 mps 587 mmHg 89%
    20:00 +12°C° 1.1 mm 1 mps 586 mmHg 91%
    21:00 +11°C° 1.1 mm 1 mps 585 mmHg 94%
    22:00 +9°C° 1.1 mm 1 mps 585 mmHg 96%
    23:00 +9°C° 0.8 mm 1 mps 584 mmHg 96%

    25 June, Sunday

    Time Temperature Precipitation Wind Pressure Humidity
    00:00 +9°C° 0.8 mm 1 mps 584 mmHg 95%
    01:00 +8°C° 0.8 mm 1 mps 584 mmHg 95%
    02:00 +8°C° 0.6 mm 1 mps 583 mmHg 95%
    03:00 +7°C° 0.6 mm 1 mps 583 mmHg 94%
    04:00 +7°C° 0.6 mm 1 mps 583 mmHg 94%
    05:00 +8°C° 0.5 mm 1 mps 584 mmHg 91%
    06:00 +10°C° 0.5 mm 1 mps 584 mmHg 88%
    07:00 +11°C° 0.5 mm 1 mps 585 mmHg 84%
    08:00 +13°C° 0.1 mm 1 mps 586 mmHg 75%
    09:00 +15°C° 0.1 mm 1 mps 587 mmHg 66%
    10:00 +18°C° 0.1 mm 1 mps 588 mmHg 57%
    11:00 +18°C° 0.3 mm 1 mps 588 mmHg 56%
    12:00 +18°C° 0.3 mm 1 mps 588 mmHg 56%
    13:00 +19°C° 0.3 mm 1 mps 588 mmHg 56%
    14:00 +17°C° 0.4 mm 2 mps 587 mmHg 59%
    15:00 +17°C° 0.4 mm 2 mps 587 mmHg 63%
    16:00 +16°C° 0.4 mm 2 mps 587 mmHg 66%
    17:00 +15°C° 0.7 mm 1 mps 586 mmHg 73%
    18:00 +14°C° 0.7 mm 1 mps 586 mmHg 81%
    19:00 +13°C° 0.7 mm 1 mps 586 mmHg 88%
    20:00 +11°C° 0.9 mm 1 mps 585 mmHg 90%
    21:00 +10°C° 0.9 mm 1 mps 585 mmHg 92%
    22:00 +9°C° 0.9 mm 1 mps 585 mmHg 94%
    23:00 +9°C° 0.7 mm 1 mps 585 mmHg 94%

    26 June, Monday

    Time Temperature Precipitation Wind Pressure Humidity
    00:00 +8°C° 0.7 mm 1 mps 585 mmHg 94%
    01:00 +8°C° 0.7 mm 1 mps 584 mmHg 94%
    02:00 +7°C° 0.1 mm 1 mps 584 mmHg 94%
    03:00 +7°C° 0.1 mm 1 mps 584 mmHg 95%
    04:00 +6°C° 0.1 mm 1 mps 583 mmHg 95%
    05:00 +8°C° 0 mm 1 mps 584 mmHg 91%
    06:00 +9°C° 0 mm 1 mps 585 mmHg 88%
    07:00 +11°C° 0 mm 1 mps 586 mmHg 84%
    08:00 +12°C° 0 mm 1 mps 586 mmHg 75%
    09:00 +14°C° 0 mm 1 mps 587 mmHg 67%
    10:00 +16°C° 0 mm 1 mps 588 mmHg 59%
    11:00 +18°C° 0.1 mm 1 mps 588 mmHg 56%
    12:00 +17°C° 0.1 mm 2 mps 588 mmHg 54%
    13:00 +18°C° 0.1 mm 2 mps 588 mmHg 51%
    14:00 +18°C° 0.2 mm 2 mps 588 mmHg 55%
    15:00 +17°C° 0.2 mm 2 mps 587 mmHg 58%
    16:00 +17°C° 0.2 mm 2 mps 587 mmHg 61%
    17:00 +16°C° 0.2 mm 2 mps 586 mmHg 69%
    18:00 +14°C° 0.2 mm 2 mps 585 mmHg 76%
    19:00 +13°C° 0.2 mm 1 mps 585 mmHg 84%
    20:00 +12°C° 0.1 mm 1 mps 584 mmHg 88%
    21:00 +11°C° 0.1 mm 1 mps 584 mmHg 92%
    22:00 +9°C° 0.1 mm 1 mps 583 mmHg 96%
    23:00 +9°C° 0.1 mm 1 mps 583 mmHg 96%

    27 June, Tuesday

    Time Temperature Precipitation Wind Pressure Humidity
    00:00 +9°C° 0.1 mm 1 mps 583 mmHg 96%
    01:00 +9°C° 0.1 mm 1 mps 583 mmHg 97%
    02:00 +9°C° 0.2 mm 1 mps 582 mmHg 97%
    03:00 +8°C° 0.2 mm 1 mps 582 mmHg 97%
    04:00 +8°C° 0.2 mm 1 mps 582 mmHg 97%
    05:00 +9°C° 0.2 mm 1 mps 582 mmHg 93%
    06:00 +10°C° 0.2 mm 1 mps 583 mmHg 89%
    07:00 +11°C° 0.2 mm 1 mps 583 mmHg 86%
    08:00 +12°C° 0.3 mm 2 mps 584 mmHg 79%
    09:00 +14°C° 0.3 mm 2 mps 584 mmHg 72%
    10:00 +15°C° 0.3 mm 2 mps 585 mmHg 65%
    11:00 +15°C° 0.5 mm 2 mps 585 mmHg 64%
    12:00 +16°C° 0.5 mm 2 mps 585 mmHg 63%
    13:00 +16°C° 0.5 mm 3 mps 585 mmHg 63%
    14:00 +16°C° 0.7 mm 3 mps 584 mmHg 65%
    15:00 +16°C° 0.7 mm 2 mps 584 mmHg 68%
    16:00 +15°C° 0.7 mm 2 mps 584 mmHg 71%
    17:00 +14°C° 0.5 mm 2 mps 583 mmHg 76%
    18:00 +13°C° 0.5 mm 1 mps 583 mmHg 80%
    19:00 +13°C° 0.5 mm 1 mps 583 mmHg 85%
    20:00 +11°C° 0.4 mm 1 mps 582 mmHg 88%
    21:00 +10°C° 0.4 mm 1 mps 581 mmHg 91%
    22:00 +8°C° 0.4 mm 1 mps 580 mmHg 94%
    23:00 +8°C° 0.1 mm 1 mps 580 mmHg 95%
    Show more